Regional Weather Roundup
Issued by NWS

Home | Current Version | Previous Version | Text Only | Print | Product List | Glossary Off
Versions: 1 2 3 4 5 6 7 8 9 10 11 12 13 14 15 16 17 18 19 20 21 22 23 24 25 26 27 28 29 30 31 32 33 34 35 36 37 38 39 40 41 42 43 44 45 46 47 48 49 50

000
ASUS43 KDTX 100010
RWRMI
MICHIGAN HOURLY REGIONAL WEATHER ROUNDUP
NATIONAL WEATHER SERVICE DETROIT/PONTIAC MI
800 PM EDT WED JUL 09 2014

NOTE: "FAIR" INDICATES FEW OR NO CLOUDS BELOW 12,000 FEET WITH NO
SIGNIFICANT WEATHER AND/OR OBSTRUCTION TO VISIBILITY.

MIZ047>049-052>055-059>063-066>070-074>076-081>083-100100-
SOUTHEAST LOWER MICHIGAN

CITY           SKY/WX    TMP DP  RH WIND       PRES   REMARKS
ADRIAN         SUNNY     73  56  54 N8        29.97R
6HR MIN TEMP:  73; 6HR MAX TEMP:  78;

ALMA           PTSUNNY   69  51  53 W5        29.97R
ANN ARBOR      MOSUNNY   73  54  51 N9        29.96R
BAD AXE        CLOUDY    63  55  74 SE6       29.97R
6HR MIN TEMP:  63; 6HR MAX TEMP:  71;

CARO           CLOUDY    69  56  65 SW3       29.96R
DETROIT CITY   CLOUDY    74  55  51 E3        29.95R
6HR MIN TEMP:  73; 6HR MAX TEMP:  79;

DETROIT        MOSUNNY   73  56  54 NW9       29.96R
6HR MIN TEMP:  72; 6HR MAX TEMP:  78;

FLINT          SUNNY     71  52  50 W9        29.97R
6HR MIN TEMP:  69; 6HR MAX TEMP:  74;

GROSSE ILE     SUNNY     75  55  50 NW8       29.94R
HILLSDALE      SUNNY     71  55  57 CALM      29.98S
HOWELL         MOSUNNY   68  55  64 NW5       29.97S
6HR MIN TEMP:  68; 6HR MAX TEMP:  72;


CITY           SKY/WX    TMP DP  RH WIND       PRES   REMARKS
JACKSON        MOSUNNY   71  55  56 N5        29.98R
6HR MIN TEMP:  69; 6HR MAX TEMP:  75;

LAMBERTVILLE   MOSUNNY   73  55  53 N6        29.95S
LANSING        MOSUNNY   69  54  58 NW5       29.98R
6HR MIN TEMP:  69; 6HR MAX TEMP:  73;

LAPEER         FAIR      69  51  52 NW5       29.97S
MASON          PTSUNNY   70  55  59 W6        29.97S
MONROE         SUNNY     73  55  53 N7        29.94R
MT. CLEMENS    MOSUNNY   71  54  55 NW8       29.94R
6HR MIN TEMP:  71; 6HR MAX TEMP:  74;

PONTIAC        MOSUNNY   70  52  52 NW8       29.96S
6HR MIN TEMP:  69; 6HR MAX TEMP:  73;

PORT HOPE        N/A     60  52  74 VRB3      29.97R
6HR MIN TEMP:  60; 6HR MAX TEMP:  69; 6HR PCP:  0.02;

PORT HURON     MOSUNNY   68  57  68 NE5       29.96R
TRI CITIES     PTSUNNY   71  51  49 NW7       29.97R
6HR MIN TEMP:  68; 6HR MAX TEMP:  73;

TROY           SUNNY     72  52  49 NW3       29.97R
SAGINAW HB     MOSUNNY   72  50  46 W8        29.96R
$$
MIZ043>046-050>051-056>058-064>065-071>073-077>080-100100-
SOUTHWEST LOWER MICHIGAN

CITY           SKY/WX    TMP DP  RH WIND       PRES   REMARKS
BATTLE CREEK   SUNNY     71  55  56 NW8       29.99R
6HR MIN TEMP:  71; 6HR MAX TEMP:  74;

BENTON HARBOR  SUNNY     68  57  68 CALM      30.00R
6HR MIN TEMP:  67; 6HR MAX TEMP:  71;

BIG RAPIDS     PTSUNNY   65  49  56 NW8G17    29.98R
6HR MIN TEMP:  65; 6HR MAX TEMP:  71;

COLDWATER      SUNNY     71  56  58 NW7       29.99R
6HR MIN TEMP:  70; 6HR MAX TEMP:  76;

FREMONT        CLOUDY    65  51  62 N10       30.00R
HOLLAND        SUNNY     70  54  56 NW7       30.00R
6HR MIN TEMP:  70; 6HR MAX TEMP:  73;

GRAND RAPIDS   MOSUNNY   71  53  52 W10       29.98R
6HR MIN TEMP:  71; 6HR MAX TEMP:  75;

IONIA          FAIR      69  53  55 NW7       29.97R
KALAMAZOO      MOSUNNY   70  54  56 NW6       29.99R
6HR MIN TEMP:  70; 6HR MAX TEMP:  76;

LUDINGTON      PTSUNNY   62  56  80 W5        30.01S
6HR MIN TEMP:  62; 6HR MAX TEMP:  69;

MARSHALL       SUNNY     69  54  58 W10       29.98R
MOUNT PLEASANT MOSUNNY   68  51  54 W5        29.97R
6HR MIN TEMP:  67; 6HR MAX TEMP:  72;

MUSKEGON       MOSUNNY   68  52  56 W9        30.00R
6HR MIN TEMP:  68; 6HR MAX TEMP:  72;

SOUTH HAVEN    SUNNY     68  57  66 N5        30.00R
$$
MIZ016>042-100100-
NORTHERN LOWER MICHIGAN

CITY           SKY/WX    TMP DP  RH WIND       PRES   REMARKS
ALPENA         MOSUNNY   64  53  67 NE10G18   29.97R
6HR MIN TEMP:  61; 6HR MAX TEMP:  67;

BEAVER ISLAND  SUNNY     60  56  87 W8        30.00R
6HR MIN TEMP:  59; 6HR MAX TEMP:  64;

BELLAIRE       MOSUNNY   62  51  67 CALM      29.99R
6HR MIN TEMP:  62; 6HR MAX TEMP:  67;

CADILLAC       CLOUDY    63  52  68 NW9       29.99R
CHARLEVOIX     SUNNY     61  53  75 W12       30.02R
6HR MIN TEMP:  60; 6HR MAX TEMP:  65;

FRANKFORT      CLOUDY    61  49  65 CALM      30.01R
GAYLORD        CLOUDY    61  48  62 NW6       29.99R
6HR MIN TEMP:  61; 6HR MAX TEMP:  66;

GRAYLING       SUNNY     63  48  59 NW8       30.00R
6HR MIN TEMP:  63; 6HR MAX TEMP:  68;

HARBOR SPRINGS SUNNY     59  54  83 W6        29.98R
HOUGHTON LAKE  PTSUNNY   65  50  58 NW7       29.99R
6HR MIN TEMP:  65; 6HR MAX TEMP:  69;

MANISTEE       MOSUNNY   61  52  72 W7        30.01S
OSCODA         PTSUNNY   63  56  79 E3        29.96S
PELLSTON       SUNNY     63  51  65 W13       29.98R
6HR MIN TEMP:  63; 6HR MAX TEMP:  67;

ROGERS CITY    PTSUNNY   63  53  69 NW5       29.97R
TRAVERSE CITY  PTSUNNY   64  52  64 N6        29.98R
6HR MIN TEMP:  64; 6HR MAX TEMP:  69;

$$
MIZ007>008-015-100100-
EASTERN UPPER MICHIGAN

CITY           SKY/WX    TMP DP  RH WIND       PRES   REMARKS
KINROSS        MOSUNNY   59  50  72 NW12      29.97R
6HR MIN TEMP:  59; 6HR MAX TEMP:  64; 6HR PCP:  0.02;

MACKINAC ISLAN MOSUNNY   61  52  71 W9G16     29.97R
6HR MIN TEMP:  60; 6HR MAX TEMP:  62;

NEWBERRY       MOSUNNY   59  44  57 NW6       29.98R
6HR MIN TEMP:  59; 6HR MAX TEMP:  64;

S. S. MARIE    MOSUNNY   57  46  66 NW12      29.97R
6HR MIN TEMP:  57; 6HR MAX TEMP:  63;

MUNISING         N/A     62  45  53 N5        29.99S
6HR MIN TEMP:  58; 6HR MAX TEMP:  63;

$$
MIZ004>006-011>014-085-100100-
CENTRAL UPPER MICHIGAN

CITY           SKY/WX    TMP DP  RH WIND       PRES   REMARKS
MANISTIQUE     SUNNY     62  44  53 NW6       29.99R
6HR MIN TEMP:  57; 6HR MAX TEMP:  69;

ESCANABA       PTSUNNY   64  52  63 CALM      30.00R
6HR MIN TEMP:  61; 6HR MAX TEMP:  66;

MENOMINEE      CLOUDY    61  55  82 E5        29.99S
6HR MIN TEMP:  59; 6HR MAX TEMP:  66; 6HR PCP:  0.06;

SAWYER-GWINN   SUNNY     63  46  55 N8        30.01R
$$
MIZ001>003-009>011-084-100100-
WESTERN UPPER MICHIGAN

CITY           SKY/WX    TMP DP  RH WIND       PRES   REMARKS
IRON MOUNTAIN  SUNNY     66  48  52 NW5       30.00R
6HR MIN TEMP:  57; 6HR MAX TEMP:  68; 6HR PCP: TRACE;

HOUGHTON       SUNNY     63  45  51 W10       29.99S
6HR MIN TEMP:  60; 6HR MAX TEMP:  65;

COPPER HARBOR    N/A     60  51  72 N10       29.98R
6HR MIN TEMP:  60; 6HR MAX TEMP:  65;

$$

ABBREVIATIONS USED IN REMARKS
   TC - TEMPERATURE IN CELSIUS
  WCI - WIND CHILL INDEX
   HX - HEAT INDEX
  VSB - VISIBILITY



USA.gov is the U.S. government's official web portal to all federal, state and local government web resources and services.